QTR106 OTHH-OBBI

Flight info

Callsign QTR106
Flight time 0h 20m
Altitude 12000
Route TULUB M444 KINID DCT BHR
Aircraft A359/H-SDE2E3GHIJ3J4J5LM1ORWXY/LB1D1

Departure

Time 2026-05-05 13:24
Airport Hamad International Airport (OTHH)

Arrival

Time 2026-05-05 13:44
Airport Bahrain International Airport (OBBI)
Time Latitude Longitude Altitude Speed Heading
2026-05-05 12:58 25.26346 51.61363 36 ft 0 kts 248°
2026-05-05 13:15 25.26346 51.61365 36 ft 2 kts 248°
2026-05-05 13:15 25.26356 51.61391 36 ft 4 kts 248°
2026-05-05 13:15 25.26364 51.61414 34 ft 4 kts 245°
2026-05-05 13:16 25.26379 51.61437 32 ft 4 kts 212°
2026-05-05 13:16 25.26403 51.61445 35 ft 4 kts 171°
2026-05-05 13:16 25.26427 51.61438 35 ft 3 kts 158°
2026-05-05 13:16 25.26452 51.61427 35 ft 3 kts 158°
2026-05-05 13:17 25.26456 51.61425 35 ft 0 kts 158°
2026-05-05 13:19 25.26424 51.61442 33 ft 11 kts 146°
2026-05-05 13:19 25.26398 51.61500 36 ft 10 kts 96°
2026-05-05 13:19 25.26416 51.61578 36 ft 12 kts 68°
2026-05-05 13:19 25.26452 51.61670 36 ft 14 kts 68°
2026-05-05 13:20 25.26494 51.61781 36 ft 17 kts 68°
2026-05-05 13:20 25.26531 51.61899 36 ft 9 kts 92°
2026-05-05 13:20 25.26498 51.61945 36 ft 9 kts 151°
2026-05-05 13:20 25.26402 51.61992 36 ft 18 kts 158°
2026-05-05 13:21 25.26276 51.62048 36 ft 21 kts 158°
2026-05-05 13:21 25.26128 51.62112 36 ft 23 kts 159°
2026-05-05 13:21 25.25968 51.62181 36 ft 26 kts 157°
2026-05-05 13:21 25.25788 51.62262 36 ft 29 kts 159°
2026-05-05 13:22 25.25667 51.62315 36 ft 0 kts 158°
2026-05-05 13:22 25.25568 51.62356 36 ft 28 kts 159°
2026-05-05 13:22 25.25478 51.62482 35 ft 19 kts 79°
2026-05-05 13:22 25.25498 51.62529 35 ft 0 kts 64°
2026-05-05 13:23 25.25516 51.62564 34 ft 15 kts 57°
2026-05-05 13:23 25.25641 51.62629 33 ft 25 kts 349°
2026-05-05 13:23 25.26039 51.62459 33 ft 101 kts 338°
2026-05-05 13:23 25.26917 51.62076 112 ft 162 kts 340°
2026-05-05 13:24 25.27990 51.61589 838 ft 170 kts 338°
2026-05-05 13:24 25.29101 51.61070 1583 ft 185 kts 339°
2026-05-05 13:24 25.30409 51.60503 1882 ft 216 kts 340°
2026-05-05 13:24 25.31903 51.59865 2218 ft 244 kts 340°
2026-05-05 13:25 25.33539 51.59185 2812 ft 256 kts 343°
2026-05-05 13:25 25.35322 51.59196 3458 ft 263 kts 17°
2026-05-05 13:25 25.37043 51.59926 3852 ft 266 kts 22°
2026-05-05 13:25 25.38771 51.60670 3980 ft 267 kts 19°
2026-05-05 13:26 25.40545 51.61312 3999 ft 269 kts 17°
2026-05-05 13:26 25.42348 51.61879 4191 ft 271 kts 15°
2026-05-05 13:26 25.44181 51.62407 4885 ft 272 kts 14°
2026-05-05 13:26 25.46017 51.62913 5853 ft 272 kts 13°
2026-05-05 13:27 25.47861 51.63408 6692 ft 274 kts 12°
2026-05-05 13:27 25.49741 51.63878 7500 ft 279 kts 11°
2026-05-05 13:27 25.51649 51.64337 8334 ft 283 kts 10°
2026-05-05 13:27 25.53582 51.64801 9242 ft 287 kts 10°
2026-05-05 13:28 25.55547 51.65275 10120 ft 290 kts
2026-05-05 13:28 25.57579 51.65695 10675 ft 307 kts
2026-05-05 13:28 25.59770 51.65557 11073 ft 325 kts 348°
2026-05-05 13:28 25.61991 51.65036 11610 ft 336 kts 346°
2026-05-05 13:29 25.64318 51.64453 11917 ft 340 kts 346°
2026-05-05 13:29 25.66650 51.63874 11989 ft 354 kts 346°
2026-05-05 13:29 25.69103 51.63272 11996 ft 361 kts 346°
2026-05-05 13:29 25.71530 51.62676 11996 ft 362 kts 346°
2026-05-05 13:30 25.73959 51.61811 11994 ft 362 kts 337°
2026-05-05 13:30 25.76102 51.60831 11999 ft 361 kts 336°
2026-05-05 13:30 25.78437 51.59730 12003 ft 361 kts 336°
2026-05-05 13:30 25.80750 51.58640 12004 ft 361 kts 336°
2026-05-05 13:31 25.83014 51.57516 11994 ft 361 kts 331°
2026-05-05 13:31 25.85000 51.55859 11970 ft 356 kts 312°
2026-05-05 13:31 25.86388 51.53609 11917 ft 353 kts 299°
2026-05-05 13:31 25.87557 51.51205 11752 ft 353 kts 298°
2026-05-05 13:32 25.88702 51.48796 11505 ft 352 kts 297°
2026-05-05 13:32 25.89851 51.46393 11257 ft 352 kts 298°
2026-05-05 13:32 25.91001 51.44000 11012 ft 351 kts 298°
2026-05-05 13:32 25.92149 51.41617 10809 ft 350 kts 298°
2026-05-05 13:33 25.93298 51.39237 10567 ft 349 kts 298°
2026-05-05 13:33 25.94442 51.36865 10326 ft 348 kts 298°
2026-05-05 13:33 25.95582 51.34504 10106 ft 347 kts 298°
2026-05-05 13:33 25.96711 51.32166 9949 ft 336 kts 297°
2026-05-05 13:34 25.97788 51.29937 9855 ft 317 kts 297°
2026-05-05 13:34 25.98781 51.27828 9759 ft 300 kts 296°
2026-05-05 13:34 25.99711 51.25827 9659 ft 284 kts 296°
2026-05-05 13:34 26.00607 51.23900 9548 ft 281 kts 296°
2026-05-05 13:35 26.01508 51.21966 9347 ft 282 kts 296°
2026-05-05 13:35 26.02411 51.20032 9114 ft 282 kts 296°
2026-05-05 13:35 26.03311 51.18103 8893 ft 278 kts 296°
2026-05-05 13:35 26.04204 51.16192 8643 ft 280 kts 296°
2026-05-05 13:36 26.05103 51.14265 8274 ft 281 kts 297°
2026-05-05 13:36 26.06006 51.12332 7912 ft 281 kts 297°
2026-05-05 13:36 26.06905 51.10405 7532 ft 281 kts 297°
2026-05-05 13:36 26.07804 51.08478 7169 ft 281 kts 297°
2026-05-05 13:37 26.08703 51.06551 6790 ft 281 kts 297°
2026-05-05 13:37 26.09602 51.04623 6405 ft 280 kts 297°
2026-05-05 13:37 26.10498 51.02702 6021 ft 279 kts 297°
2026-05-05 13:37 26.11391 51.00785 5630 ft 280 kts 297°
2026-05-05 13:38 26.12260 50.98852 5259 ft 279 kts 295°
2026-05-05 13:38 26.13074 50.96885 4876 ft 280 kts 294°
2026-05-05 13:38 26.13865 50.94904 4492 ft 280 kts 294°
2026-05-05 13:38 26.14651 50.92921 4085 ft 280 kts 294°
2026-05-05 13:39 26.15306 50.90887 3699 ft 280 kts 287°
2026-05-05 13:39 26.15857 50.88804 3325 ft 280 kts 286°
2026-05-05 13:39 26.16391 50.86727 3057 ft 276 kts 285°
2026-05-05 13:39 26.16899 50.84729 3000 ft 259 kts 285°
2026-05-05 13:40 26.17370 50.82869 3001 ft 240 kts 285°
2026-05-05 13:40 26.17805 50.81148 3001 ft 223 kts 285°
2026-05-05 13:40 26.18211 50.79546 3000 ft 206 kts 285°
2026-05-05 13:40 26.18681 50.78119 3016 ft 187 kts 296°
2026-05-05 13:41 26.19314 50.76920 3026 ft 179 kts 303°
2026-05-05 13:41 26.19957 50.75774 2921 ft 169 kts 301°
2026-05-05 13:41 26.20575 50.74689 2652 ft 167 kts 303°
2026-05-05 13:41 26.21235 50.73575 2167 ft 176 kts 303°
2026-05-05 13:42 26.21879 50.72416 1754 ft 176 kts 302°
2026-05-05 13:42 26.22527 50.71249 1297 ft 177 kts 301°
2026-05-05 13:42 26.23149 50.70070 943 ft 174 kts 304°
2026-05-05 13:42 26.23790 50.68989 744 ft 161 kts 305°
2026-05-05 13:43 26.24373 50.67980 616 ft 146 kts 306°
2026-05-05 13:43 26.24912 50.67079 460 ft 135 kts 306°
2026-05-05 13:43 26.25416 50.66219 305 ft 132 kts 305°
2026-05-05 13:43 26.25919 50.65371 164 ft 132 kts 306°
2026-05-05 13:44 26.26417 50.64511 35 ft 128 kts 306°
2026-05-05 13:44 26.26866 50.63750 25 ft 96 kts 304°
2026-05-05 13:44 26.27105 50.63327 20 ft 34 kts 304°
2026-05-05 13:44 26.27222 50.63122 24 ft 33 kts 296°
2026-05-05 13:45 26.27254 50.62912 21 ft 22 kts 266°
2026-05-05 13:45 26.27256 50.62839 22 ft 0 kts 273°
2026-05-05 13:47 26.27256 50.62834 22 ft 0 kts 273°
2026-05-05 13:47 26.27260 50.62767 25 ft 12 kts 274°
2026-05-05 13:47 26.27282 50.62686 22 ft 11 kts 298°
2026-05-05 13:48 26.27319 50.62619 23 ft 9 kts 301°
2026-05-05 13:48 26.27351 50.62560 24 ft 8 kts 301°
2026-05-05 13:48 26.27359 50.62521 25 ft 1 kts 250°
2026-05-05 13:48 26.27349 50.62504 24 ft 15 kts 238°
2026-05-05 13:49 26.27307 50.62456 27 ft 3 kts 194°
2026-05-05 13:49 26.27278 50.62457 17 ft 11 kts 175°
2026-05-05 13:49 26.27256 50.62466 24 ft 0 kts 143°
2026-05-05 13:49 26.27214 50.62503 25 ft 11 kts 139°
2026-05-05 13:50 26.27201 50.62549 22 ft 4 kts 93°
2026-05-05 13:50 26.27193 50.62599 22 ft 13 kts 108°
2026-05-05 13:50 26.27142 50.62705 24 ft 18 kts 120°
2026-05-05 13:50 26.27080 50.62757 23 ft 5 kts 199°
2026-05-05 13:51 26.27051 50.62739 23 ft 4 kts 211°
2026-05-05 13:51 26.27040 50.62731 25 ft 0 kts 211°
2026-05-05 13:51 26.27038 50.62730 25 ft 4 kts 211°
2026-05-05 13:51 26.27032 50.62726 25 ft 0 kts 211°